Flag for France Weather past 2 weeks in Taiohae, Marquesas Islands, France

Now
80 °F

Overcast.


Feels Like: 83 °F
Forecast: 78 / 81 °F
Wind: 15 mph from East

Location: Atuona

Current Time: Sep 22, 2014 at 11:19:42 AM

Latest Report: Sep 22, 2014 at 10:30 AM


Visibility: 5 mi

Pressure: 29.98 "Hg

Humidity: 74%

Dew point: 71 °F

Location of TaiohaeLocation

Historic Weather in Taiohae — Graph

°F

Taiohae temperature yesterday

Maximum temperature yesterday: 87 °F (at 11:30 AM)
Minimum temperature yesterday: 72 °F (at 12:30 AM)
Average temperature yesterday: 79 °F

Past Weeks' High & Low Weather Summary

 TemperatureHumidityPressure
High87 °F (Sep 21, 11:30 AM)95% (Sep 10, 6:30 AM)30.01 "Hg (Sep 10, 6:30 AM)
Low71 °F (Sep 20, 3:30 AM)50% (Sep 21, 11:30 AM)29.80 "Hg (Sep 13, 3:30 PM)
Average77 °F79%29.91 "Hg
* Reported Sep 7 9:30 AM — Sep 22 9:30 AM, Taiohae, Weather by CustomWeather, © 2014

Note: Actual official high and low records may vary slightly from our data, if they occured in-between our weather recording intervals... More about our weather records

Advertising

Taiohae weather history for previous 24 hours

 ConditionsComfort  
Time TempWeatherWind HumidityBarometerVisibility
9:30 AM
Sep 22
80 °FOvercast.17 mph75%30.00 "Hg19 mi
8:30 AM79 °FOvercast.13 mph78%30.01 "Hg5 mi
7:30 AM77 °FWarm.5 mph81%29.99 "HgN/A
6:30 AM76 °FOvercast.6 mph87%29.97 "Hg9 mi
5:30 AM76 °FMild.10 mph82%29.94 "HgN/A
4:30 AM74 °FMild.5 mph89%29.92 "HgN/A
3:30 AM73 °FMild.2 mph91%29.91 "HgN/A
2:30 AM73 °FMild.2 mph90%29.90 "HgN/A
1:30 AM73 °FMild.3 mph87%29.91 "HgN/A
12:30 AM73 °FMild.2 mph85%29.93 "HgN/A
11:30 PM
Sep 21
73 °FMild.2 mph85%29.95 "HgN/A
10:30 PM73 °FMild.3 mph86%29.96 "HgN/A
9:30 PM73 °FMild.2 mph87%29.96 "HgN/A
8:30 PM74 °FMild.2 mph87%29.96 "HgN/A
7:30 PM75 °FMild.2 mph86%29.95 "HgN/A
6:30 PM77 °FMild.5 mph83%29.93 "HgN/A
5:30 PM77 °FWarm.3 mph78%29.90 "HgN/A
4:30 PM80 °FPassing clouds.20 mph72%29.88 "Hg22 mi
3:30 PM83 °FPassing clouds.6 mph63%29.86 "Hg22 mi
2:30 PM85 °FScattered clouds.10 mph53%29.87 "Hg22 mi
1:30 PM86 °FScattered clouds.7 mph53%29.89 "Hg22 mi
12:30 PM87 °FScattered clouds.9 mph54%29.91 "Hg22 mi
11:30 AM87 °FOvercast.7 mph50%29.94 "Hg19 mi
Weather by CustomWeather, © 2014

See weather overviewHow to use our weather pages